Location: ?astrovice
(49.6513°N, 14.9287°E)
Time: 11:12:05
(UTC+00:00)

IGS 5A - Pass Details

Date: 09 April 2020
Orbit: 585 x 587 km, 97.6° (Epoch: 19 May)

Event Time Altitude Azimuth Distance (km) Brightness Sun altitude
Exits shadow 20:20:36 60° 206° (SSW) 673 3.5 -22.5°
Maximum altitude 20:21:10 71° 258° (WSW) 625 3.5 -22.6°
Drops below altitude 10° 20:25:20 10° 343° (NNW) 1,922 7.0 -23.1°
Sets 20:27:31 0° 345° (NNW) 2,827 8.0 -23.3°
